When you browse on this site, cookies collect data to enhance your experience and personalize the content and advertising you see.
Visit our Privacy Policy to learn more. By continuing to use the site, you agree to this use of cookies and data.
  • In United Kingdom
  • List of Countries
  • For 7 days
  • Water Temperature
  • Satellite Maps
  • Weather Map
  • Weather Widgets
  • user-avatar
    Login

    Hourly Weather Pontypool

    Today, 25 April, Thursday

    Time Temperature Precipitation Wind Pressure Humidity
    00:00 +5°C° 0 mm 4 mps 731 mmHg 95%
    01:00 +5°C° 0.1 mm 4 mps 730 mmHg 96%
    02:00 +5°C° 0.1 mm 4 mps 730 mmHg 96%
    03:00 +5°C° 0.1 mm 4 mps 729 mmHg 96%
    04:00 +6°C° 0.5 mm 5 mps 729 mmHg 95%
    05:00 +7°C° 0.5 mm 5 mps 729 mmHg 94%
    06:00 +8°C° 0.5 mm 6 mps 729 mmHg 94%
    07:00 +8°C° 0.1 mm 6 mps 730 mmHg 91%
    08:00 +9°C° 0.1 mm 7 mps 730 mmHg 88%
    09:00 +9°C° 0.1 mm 7 mps 730 mmHg 86%
    10:00 +10°C° 0.4 mm 7 mps 731 mmHg 82%
    11:00 +10°C° 0.4 mm 7 mps 731 mmHg 79%
    12:00 +11°C° 0.4 mm 8 mps 732 mmHg 76%
    13:00 +10°C° 0.4 mm 7 mps 732 mmHg 75%
    14:00 +10°C° 0.4 mm 7 mps 733 mmHg 75%
    15:00 +10°C° 0.4 mm 7 mps 733 mmHg 74%
    16:00 +10°C° 0.2 mm 7 mps 734 mmHg 77%
    17:00 +9°C° 0.2 mm 6 mps 734 mmHg 79%
    18:00 +9°C° 0.2 mm 5 mps 735 mmHg 81%
    19:00 +8°C° 0 mm 5 mps 735 mmHg 84%
    20:00 +7°C° 0 mm 5 mps 736 mmHg 88%
    21:00 +6°C° 0 mm 4 mps 736 mmHg 91%
    22:00 +6°C° 0 mm 4 mps 737 mmHg 92%
    23:00 +6°C° 0 mm 4 mps 737 mmHg 93%

    Tomorrow, 26 April, Friday

    Time Temperature Precipitation Wind Pressure Humidity
    00:00 +5°C° 0 mm 4 mps 737 mmHg 93%
    01:00 +5°C° 0 mm 4 mps 738 mmHg 93%
    02:00 +5°C° 0 mm 4 mps 738 mmHg 93%
    03:00 +5°C° 0 mm 4 mps 738 mmHg 93%
    04:00 +5°C° 0 mm 5 mps 738 mmHg 92%
    05:00 +6°C° 0 mm 5 mps 738 mmHg 91%
    06:00 +5°C° 0 mm 6 mps 739 mmHg 90%
    07:00 +7°C° 1 mm 6 mps 739 mmHg 91%
    08:00 +7°C° 1 mm 6 mps 739 mmHg 93%
    09:00 +6°C° 1 mm 7 mps 740 mmHg 94%
    10:00 +8°C° 0.4 mm 7 mps 740 mmHg 91%
    11:00 +8°C° 0.4 mm 7 mps 741 mmHg 88%
    12:00 +9°C° 0.4 mm 8 mps 742 mmHg 85%
    13:00 +7°C° 0 mm 8 mps 742 mmHg 81%
    14:00 +7°C° 0 mm 9 mps 742 mmHg 76%
    15:00 +7°C° 0 mm 9 mps 742 mmHg 71%
    16:00 +7°C° 0 mm 8 mps 742 mmHg 74%
    17:00 +7°C° 0 mm 8 mps 742 mmHg 77%
    18:00 +6°C° 0 mm 7 mps 742 mmHg 79%
    19:00 +6°C° 0.7 mm 8 mps 741 mmHg 82%
    20:00 +6°C° 0.7 mm 8 mps 741 mmHg 84%
    21:00 +6°C° 0.7 mm 9 mps 740 mmHg 86%
    22:00 +5°C° 0.2 mm 9 mps 739 mmHg 85%
    23:00 +5°C° 0.2 mm 10 mps 738 mmHg 84%

    Day after tomorrow, 27 April, Saturday

    Time Temperature Precipitation Wind Pressure Humidity
    00:00 +3°C° 0.2 mm 10 mps 737 mmHg 84%
    01:00 +4°C° 1 mm 12 mps 737 mmHg 84%
    02:00 +4°C° 1 mm 13 mps 737 mmHg 85%
    03:00 +4°C° 1 mm 14 mps 736 mmHg 86%
    04:00 +3°C° 0.3 mm 14 mps 737 mmHg 85%
    05:00 +3°C° 0.3 mm 14 mps 737 mmHg 84%
    06:00 +3°C° 0.3 mm 14 mps 738 mmHg 84%
    07:00 +3°C° 0.1 mm 14 mps 739 mmHg 81%
    08:00 +3°C° 0.1 mm 14 mps 740 mmHg 79%
    09:00 +3°C° 0.1 mm 14 mps 741 mmHg 77%
    10:00 +4°C° 0.1 mm 14 mps 742 mmHg 75%
    11:00 +4°C° 0.1 mm 14 mps 743 mmHg 73%
    12:00 +5°C° 0.1 mm 13 mps 744 mmHg 72%
    13:00 +5°C° 0.1 mm 13 mps 745 mmHg 71%
    14:00 +5°C° 0.1 mm 12 mps 746 mmHg 70%
    15:00 +5°C° 0.1 mm 12 mps 747 mmHg 70%
    16:00 +6°C° 0 mm 11 mps 747 mmHg 69%
    17:00 +6°C° 0 mm 10 mps 748 mmHg 68%
    18:00 +6°C° 0 mm 9 mps 749 mmHg 67%
    19:00 +5°C° 0 mm 8 mps 749 mmHg 69%
    20:00 +4°C° 0 mm 7 mps 750 mmHg 70%
    21:00 +3°C° 0 mm 6 mps 751 mmHg 72%
    22:00 +3°C° 0 mm 5 mps 751 mmHg 73%
    23:00 +3°C° 0 mm 5 mps 751 mmHg 74%

    28 April, Sunday

    Time Temperature Precipitation Wind Pressure Humidity
    00:00 +4°C° 0 mm 4 mps 752 mmHg 75%
    01:00 +4°C° 0 mm 4 mps 752 mmHg 77%
    02:00 +3°C° 0 mm 4 mps 752 mmHg 79%
    03:00 +3°C° 0 mm 4 mps 752 mmHg 81%
    04:00 +4°C° 0 mm 4 mps 753 mmHg 80%
    05:00 +4°C° 0 mm 4 mps 753 mmHg 79%
    06:00 +5°C° 0 mm 3 mps 753 mmHg 78%
    07:00 +6°C° 0 mm 4 mps 753 mmHg 76%
    08:00 +7°C° 0 mm 4 mps 754 mmHg 73%
    09:00 +8°C° 0 mm 4 mps 754 mmHg 70%
    10:00 +10°C° 0 mm 4 mps 754 mmHg 67%
    11:00 +11°C° 0 mm 3 mps 754 mmHg 65%
    12:00 +12°C° 0 mm 3 mps 754 mmHg 62%
    13:00 +12°C° 0.1 mm 3 mps 754 mmHg 67%
    14:00 +12°C° 0.1 mm 2 mps 754 mmHg 71%
    15:00 +12°C° 0.1 mm 2 mps 753 mmHg 76%
    16:00 +12°C° 0.1 mm 2 mps 753 mmHg 78%
    17:00 +12°C° 0.1 mm 2 mps 753 mmHg 81%
    18:00 +12°C° 0.1 mm 2 mps 753 mmHg 83%
    19:00 +11°C° 0.3 mm 1 mps 753 mmHg 87%
    20:00 +10°C° 0.3 mm 1 mps 754 mmHg 90%
    21:00 +9°C° 0.3 mm 1 mps 754 mmHg 94%
    22:00 +9°C° 0.6 mm 1 mps 754 mmHg 94%
    23:00 +9°C° 0.6 mm 1 mps 754 mmHg 95%

    29 April, Monday

    Time Temperature Precipitation Wind Pressure Humidity
    00:00 +8°C° 0.6 mm 1 mps 754 mmHg 96%
    01:00 +8°C° 0.4 mm 1 mps 754 mmHg 96%
    02:00 +8°C° 0.4 mm 1 mps 754 mmHg 96%
    03:00 +8°C° 0.4 mm 1 mps 753 mmHg 96%
    04:00 +8°C° 0.1 mm 1 mps 754 mmHg 95%
    05:00 +8°C° 0.1 mm 1 mps 754 mmHg 95%
    06:00 +8°C° 0.1 mm 1 mps 754 mmHg 95%
    07:00 +8°C° 0.1 mm 1 mps 754 mmHg 93%
    08:00 +9°C° 0.1 mm 1 mps 754 mmHg 91%
    09:00 +10°C° 0.1 mm 1 mps 754 mmHg 89%
    10:00 +11°C° 0 mm 1 mps 754 mmHg 83%
    11:00 +12°C° 0 mm 2 mps 754 mmHg 78%
    12:00 +14°C° 0 mm 2 mps 754 mmHg 72%
    13:00 +14°C° 0.1 mm 2 mps 754 mmHg 71%
    14:00 +14°C° 0.1 mm 2 mps 754 mmHg 71%
    15:00 +14°C° 0.1 mm 2 mps 754 mmHg 70%
    16:00 +14°C° 0.1 mm 1 mps 754 mmHg 73%
    17:00 +14°C° 0.1 mm 1 mps 754 mmHg 77%
    18:00 +14°C° 0.1 mm 1 mps 754 mmHg 80%
    19:00 +12°C° 0 mm 1 mps 754 mmHg 84%
    20:00 +11°C° 0 mm 1 mps 754 mmHg 87%
    21:00 +9°C° 0 mm 1 mps 754 mmHg 91%
    22:00 +8°C° 0 mm 2 mps 754 mmHg 92%
    23:00 +7°C° 0 mm 2 mps 754 mmHg 94%

    30 April, Tuesday

    Time Temperature Precipitation Wind Pressure Humidity
    00:00 +6°C° 0 mm 2 mps 754 mmHg 95%
    01:00 +6°C° 0 mm 2 mps 754 mmHg 95%
    02:00 +6°C° 0 mm 2 mps 753 mmHg 96%
    03:00 +5°C° 0 mm 2 mps 753 mmHg 96%
    04:00 +5°C° 0 mm 2 mps 753 mmHg 96%
    05:00 +6°C° 0 mm 2 mps 753 mmHg 96%
    06:00 +6°C° 0 mm 2 mps 753 mmHg 97%
    07:00 +7°C° 0 mm 2 mps 753 mmHg 93%
    08:00 +9°C° 0 mm 2 mps 753 mmHg 89%
    09:00 +10°C° 0 mm 2 mps 753 mmHg 86%
    10:00 +12°C° 0 mm 2 mps 753 mmHg 82%
    11:00 +13°C° 0 mm 2 mps 753 mmHg 77%
    12:00 +14°C° 0 mm 2 mps 753 mmHg 73%
    13:00 +15°C° 0.1 mm 2 mps 752 mmHg 71%
    14:00 +14°C° 0.1 mm 3 mps 752 mmHg 68%
    15:00 +16°C° 0.1 mm 3 mps 752 mmHg 66%
    16:00 +14°C° 0.2 mm 3 mps 752 mmHg 71%
    17:00 +13°C° 0.2 mm 3 mps 751 mmHg 77%
    18:00 +13°C° 0.2 mm 3 mps 751 mmHg 83%
    19:00 +11°C° 0.1 mm 3 mps 751 mmHg 87%
    20:00 +9°C° 0.1 mm 3 mps 752 mmHg 91%
    21:00 +8°C° 0.1 mm 2 mps 752 mmHg 95%
    22:00 +7°C° 0 mm 2 mps 752 mmHg 95%
    23:00 +7°C° 0 mm 2 mps 752 mmHg 95%
    Show more